Regional Weather Roundup
Issued by NWS Wakefield, VA

Home | Current Version | Previous Version | Graphics & Text | Print | Product List | Glossary On
Versions: 1 2 3 4 5 6 7 8 9 10 11 12 13 14 15 16 17 18 19 20 21 22 23 24 25 26 27 28 29 30 31 32 33 34 35 36 37 38 39 40 41 42 43 44 45 46 47 48 49 50
061
ASUS41 KAKQ 130215
RWRAKQ

REGIONAL WEATHER ROUNDUP
NATIONAL WEATHER SERVICE WAKEFIELD VA
900 PM EST TUE DEC 12 2017

Note: "fair" indicates few or no clouds below 12,000 feet with no
significant weather and/or obstructions to visibility. * = Denotes
station may not report precipitation (e.g., rain,snow,etc.),
thunder or fog.

VAZ042-051-052>054-056-130300-
NORTHERN VIRGINIA

CITY           SKY/WX    TMP DP  RH WIND       PRES   REMARKS
WASH NATIONAL  MOCLDY    29   9  43 NW24G32   29.72R WCI  15
DULLES         PTCLDY    26   5  40 NW23G40   29.71R WCI  11
FORT BELVOIR   PTCLDY    29   6  38 NW23G33   29.71R WCI  15
QUANTICO       PTCLDY    30   7  37 N17G36    29.74R WCI  18
FREDERICKSBRG* MOCLDY    31  18  58 NW21G33   29.72R WCI  18
STAFFORD*      MOCLDY    29  13  52 NW21G29   29.76R WCI  15
WARRENTON      CLOUDY    29   4  35 NW10G26   29.73R WCI  20
CULPEPER*      PTCLDY    29   7  39 NW13G24   29.75S WCI  18
MANASSAS*      CLEAR     27   8  44 NW18      29.74R WCI  14
LEESBURG*      CLEAR     28  10  47 NW22G28   29.73R WCI  15
WINCHESTER     CLOUDY    23   3  42 NW15G25   29.74S WCI  10
FRONT ROYAL*   CLOUDY    25   9  50 MISG      29.73S
LURAY*         FLURRIES  25  12  58 W18G26    29.75S WCI  11
$$

VAZ048-049-060>072-079>083-130300-
CENTRAL AND SOUTH CENTRAL VIRGINIA

CITY           SKY/WX    TMP DP  RH WIND       PRES   REMARKS
RICHMOND       PTCLDY    32  13  45 NW21G31   29.70R WCI  20
CHESTERFIELD*  NOT AVBL
PETERSBURG*    PTCLDY    34  10  37 W12       29.71R
HANOVER        PTCLDY    31   9  39 W21G30    29.72R WCI  18
TAPPAHANNOCK*  NOT AVBL
QUINTON*       FAIR      32  18  55 NW13G26   29.68R WCI  23
CHARLOTTSVILLE PTCLDY    28   2  32 NW10G22   29.75R WCI  19
GORDONSVILLE*  MOCLDY    29   7  38 NW9G23    29.73R
ORANGE*        CLEAR     28  10  47 NW9G17    29.73S
LOUISA*        PTCLDY    28   4  35 W16       29.77R WCI  16
BUMPASS*       FAIR      30   5  34 W6        29.72R
FARMVILLE*     CLEAR     32  10  40 NW7       29.75R
CREWE*         FAIR      32   9  38 NW21G32   29.72R WCI  20
FORT PICKETT*  NOT AVBL
CHASE CITY*    FAIR      31  10  40 W12G24    29.76R WCI  22
CLARKSVILLE*   MOCLDY    32  14  47 NW12G28   29.77R WCI  23
SOUTH HILL*    MOCLDY    33  16  49 W8        29.79R
LAWRENCEVILLE* FAIR      33  10  36 NW9G22    29.72R
EMPORIA*       CLOUDY    36  12  38 W17G25    29.73R
$$

VAZ088>098-130300-
SOUTHEAST VIRGINIA

CITY           SKY/WX    TMP DP  RH WIND       PRES   REMARKS
NORFOLK        MIX PCPN  37  32  82 NW17G31   29.63R
VIRGINIA BEACH FLURRIES  37  31  78 NW23G39   29.61R
NORFOLK NAVAL  LGT SNOW  36  32  85 NW22G33   29.65R FOG     WCI  25
WEST POINT*    CLOUDY   N/A N/A N/A NW8       29.69S
SALUDA*        CLOUDY    35  28  75 N15G22    29.64S
NEWPORT NEWS   LGT RAIN  34  30  85 NW14G22   29.65S WCI  25
LANGLEY AFB    FLURRIES  34  32  93 NW14G22   29.63R WCI  24
FORT EUSTIS    CLOUDY    35  30  82 NW16G26   29.63S
WILLIAMSBURG*  CLOUDY    34  30  86 NW10      29.67S
HR EXEC AP*    LGT RAIN  36  32  87 NW8G22    29.67R
FRANKLIN*      CLOUDY    39  25  56 NW14G22   29.68R
US460-WAKEFLD  MOCLDY    37  24  59 NW9G17    29.67R
$$

VAZ020-022-025-037-045-130300-
WEST CENTRAL AND SOUTHWEST VIRGINIA

CITY           SKY/WX    TMP DP  RH WIND       PRES   REMARKS
STAUNTON*      MOCLDY    22   4  44 NW17G29   29.76S WCI   8
WAYNESBORO*    PTCLDY    22   0  37 NW14G30   29.72S WCI   9
HOT SPRINGS VA CLOUDY    13   2  60 W31G44    29.56F WCI  -9
LYNCHBURG      PTCLDY    27   1  32 NW20G33   29.76R WCI  13
DANVILLE       CLEAR     30  14  51 NW17G28   29.80R WCI  18
SOUTH BOSTON*  MOCLDY    32  11  41 NW15G30   29.79R WCI  21
MARTINSVILLE   PTCLDY    29   8  40 NW17G31   29.82S WCI  17
ROANOKE        PTCLDY    26   7  44 W14G32    29.80S WCI  14
BLACKSBURG     LGT SNOW  22  15  75 W21G31    29.78S WCI   6
DUBLIN*        FLURRIES  24  14  67 NW15G30   29.78R WCI  11
MARION*        CLOUDY    23   7  50 NW18G30   29.79R WCI   9
HILLSVILLE*    PTCLDY    20  10  65 NW21G33   29.70S WCI   4
RICHLANDS*     CLOUDY    21   6  51 NW15G28   29.82R WCI   8
WISE*          CLOUDY    23  12  63 NW12G17   29.86S WCI  12
ABINGDON*      CLEAR     27  10  50 NW13G26   29.87R WCI  16
$$

MDZ021>025-VAZ099-100-130300-
SOUTHERN MARYLAND AND THE DELMARVA PENINSULA

CITY           SKY/WX    TMP DP  RH WIND       PRES   REMARKS
PATUXENT RIVER CLOUDY    33  19  56 NW33G46   29.65R WCI  18
BAY BRIDGE APT PTCLDY    32  14  47 MISG      29.67R
LEONARDTOWN    MOCLDY    32  19  59 NW12G22   29.68R WCI  23
DOVER          MOCLDY    34  18  52 NW25G37   29.58R WCI  21
GEORGETOWN     CLOUDY    38  18  44 W20G29    29.57R
EASTON         PTCLDY    32  14  47 N20G28    29.67R WCI  20
CAMBRIDGE      MOCLDY    34  18  51 NW23G31   29.63R WCI  22
SALISBURY      FLURRIES  35  25  66 NW15G25   29.58F
OCEAN CITY     CLOUDY    37  23  56 NW17G31   29.54F
WALLOPS ISLAND FLURRIES  34  30  85 NW12      29.58F
ACCOMACK*      FLURRIES  35  31  88 NW14G36   29.60S
$$

NCZ012>017-030>032-130300-
NORTH CENTRAL AND EASTERN NORTH CAROLINA

CITY           SKY/WX    TMP DP  RH WIND       PRES   REMARKS
ROANOKE RAPIDS FAIR      37  16  41 W12G23    29.72R
RALEIGH        PTCLDY    35  17  47 N8G25     29.79R
ELIZABETH CITY CLOUDY    44  28  53 W20G26    29.62R
AHOSKIE*       CLOUDY    39  24  53 W6        29.69R
EDENTON*       CLOUDY    45  29  55 NW21G37   29.66R
CURRITUCK*     PTCLDY    45  27  49 W13G24    29.60R
KILL DEVIL HLS CLEAR     46  31  56 NW15G23   29.56R
MANTEO         CLEAR     47  31  55 NW14G24   29.58R
CAPE HATTERAS  PTCLDY    50  37  61 NW10G21   29.59R
TARBORO*       NOT AVBL
GOLDSBORO      CLOUDY    41  25  52 NW15G24   29.71R
WASHINGTON     CLOUDY    37  33  86 NW14G24   29.69R
GREENVILLE     MOCLDY    37  32  81 N15G22    29.75R
NEW BERN       LGT RAIN  45  34  65 NW18G28   29.68R
WILMINGTON     MOCLDY    46  38  73 W8        29.69R
$$

VAZ048-130300-
ELSEWHERE

CITY           SKY/WX    TMP DP  RH WIND       PRES   REMARKS
HARRISBURG PA  MOCLDY    24   5  44 NW25G36   29.67F WCI   8
BALTIMORE      PTCLDY    27   8  44 NW13G33   29.68R WCI  16
ANNAPOLIS      PTCLDY    31  13  47 NW14G36   29.67R WCI  21
ANDREWS AFB    CLEAR     28   6  39 NW25G40   29.67S WCI  13
PHILADELPHIA   PTCLDY    32  10  40 W22G31    29.58R WCI  19
HENDERSON NC   CLEAR     31  11  43 NW10G24   29.75R WCI  23
GREENSBORO     PTCLDY    32  14  47 NW28G37   29.78R WCI  18
ROCKY MOUNT    MOCLDY    38  20  48 NW21G32   29.74R
$$

VAZ100-130300-
MARINE

STATION/POSITION TIME  TEMP    WIND        PRES    WAVE   SWELL
                       AIR SEA DIR/SP/G            HT/PER HT/PER
                 (UTC) (F)     (DEG/KT/KT) (MB)    (FT/S) (FT/S)
BRANDYWINE LGT   0148          340/ 30/ 38   N/A
CAPE MAY NJ      0136   38 45  330/ 25/ 35  999.6R
LEWES DE         0142   39 47  320/ 29/ 34 1000.2R
15NM E FENWICK I 0150   43 53  300/ 29/ 37  998.4F   6/ 5   2/11
OCEAN-CITY-INLET 0142   39 49  330/ 20/ 27 1000.5F
WACHAPREAGUE VA  0142   34 44  290/  4/ 17 1001.9F
THOMAS POINT MD  0200   31 47  320/ 30/ 35   N/A
GOOSES REEF MD   0200   34 47  340/ 25/ 31 1004.7    4/ 3
COVE POINT MD    0142   33     330/ 27/ 42 1004.4R
SOLOMONS ISLAND  0142   34 47  320/ 20/ 30 1003.8R
BISHOPS HEAD MD  0142   37 42  300/ 22/ 28 1003.2F
PINEY POINT MD   0148          350/ 30/ 32   N/A
POTOMAC MD       0200   37 49  330/ 27/ 33 1002.6    4/ 4
CAMBRIDGE MD     0124   36 45              1003.8
LEWISETTA VA     0142   36 45  330/ 22/ 33 1004.3R
RAPPAHANNOCK LGT 0142          310/ 32/ 36 1003.3R
STINGRAY PT      0200   36 48  350/ 19/ 23 1003.5    2/ 3
YORK RVR RNG VA  0142   36     330/ 28/ 34 1004.2R
YORKTOWN VA      0142   35 49  330/ 19/ 32 1003.5F
JAMESTOWN VA     0200      47  330/ 16/ 19   N/A     1/ 2
DOMINION TERM VA 0142   36     330/ 21/ 33 1003.5R
KIPTOPEKE VA     0142      49  340/ 34/ 40   N/A
CAPE HENRY VA    0142   38     330/ 36/ 44   N/A
WILLOUBY STN VA  0148          330/ 22/ 27   N/A
S CRANEY ISL VA  0142   37     330/ 16/ 23 1003.0R
CAPE HENRY BUOY  0130      54                N/A     4/ 4
1ST LANDING BUOY 0200   39 50  340/ 29/ 37 1002.8    4/ 3
CAPE CHARLES BUO 0151      54                N/A     5/ 4
64NM E OF VA BCH 0150   49 60  310/ 29/ 37  999.0R   7/ 6
DUCK PIER NC     0142   47 56  300/ 20/ 25 1000.9R
44100 DUCK FRF   0145      55                N/A     4/ 4
44056 DUCK FRF   0130      56                N/A     2/ 3
OREGON INLET NC  0148          290/ 16/ 21   N/A
HATTERAS NC      0142   50 57  300/ 19/ 22 1001.7R
DIAMOND SHLS NC  0150   55 72  300/ 27/ 33 1001.8R   9/ 9   5/ 9
CAPE LOOKOUT NC  0200          290/ 17/ 21 1003.5F
$$




USA.gov is the U.S. government's official web portal to all federal, state and local government web resources and services.